Hourly Data Report for September 26, 2013

All times are specified in Local Standard Time (LST). Add 1 hour to adjust for Daylight Saving Time where and when it is observed.

PETAWAWA AWOS 2
ONTARIO

45°57'00.000" N
77°19'00.000" W
130.10 m
6106396
71625
YWA

Download Data

Hourly Data (September 2013)
Hourly Data Report for September 26, 2013
Temp Definition
°C
Dew Point Temp Definition
°C
Rel Hum Definition
%
Wind Dir Definition
10's deg

Wind Spd Definition
km/h
Visibility Definition
km
Stn Press Definition
kPa
Hmdx Definition


Wind Chill Definition


Weather Definition


TIME
00:00 7.2 6.4 95 26 7 15.0 100.14      
01:00 6.2 5.8 97 25 6 15.0 100.19      
02:00 6.3 6.0 98 21 4 15.0 100.23      
03:00 5.3 5.1 99 25 4 15.0 100.27      
04:00 4.8 4.6 99   0 15.0 100.30      
05:00 3.9 3.8 99 23 4 15.0 100.38      
06:00 3.8 3.6 99   0 15.0 100.43      
07:00 5.4 5.3 99 22 4 15.0 100.47      
08:00 9.7 8.8 94 24 4 15.0 100.52      
09:00 13.1 10.3 83   0 15.0 100.57      
10:00 14.0 10.3 78 10 6 15.0 100.56      
11:00 16.5 10.1 66 9 6 15.0 100.53      
12:00 16.7 11.0 69 4 6 15.0 100.49      
13:00 18.7 11.6 63   0 15.0 100.46      
14:00 20.0 11.8 59 6 6 15.0 100.44      
15:00 21.3 12.1 56 5 4 15.0 100.42      
16:00 21.2 11.7 55 1 7 15.0 100.44      
17:00 19.9 12.6 63   0 15.0 100.49      
18:00 17.1 12.6 75 8 6 15.0 100.52      
19:00 16.8 13.0 78 12 6 15.0 100.58      
20:00 15.7 11.5 76   0 15.0 100.63      
21:00 11.1 10.7 97   0 15.0 100.65      
22:00 9.7 9.6 99 25 4 15.0 100.67      
23:00 9.0 8.9 99   0 15.0 100.69      

Notes on Data Quality.

Legend

  • E = Estimated
  • M = Missing
  • NA = Not Available
  • ‡ = Partner data that is not subject to review by the National Climate Archives
Date modified: